Location: Leedale
(52.5833°N, 114.4833°W)
Time: 16:10:06
(UTC+00:00)

Envisat - Pass Details

Date: 11 August 2024
Orbit: 762 x 764 km, 98.3° (Epoch: 09 September)

Event Time Altitude Azimuth Distance (km) Brightness Sun altitude
Rises 11:08:57 0° 14° (NNE) 3,242 7.2 -9.2°
Reaches altitude 10° 11:11:16 10° 14° (NNE) 2,311 6.4 -8.9°
Maximum altitude 11:16:23 88° 286° (WNW) 772 3.0 -8.3°
Drops below altitude 10° 11:21:27 10° 198° (SSW) 2,293 5.0 -7.7°
Enters shadow 11:22:54 - 198° (SSW) 2,877 5.5 -7.5°
